Regional Weather Roundup
Issued by NWS

Home | Current Version | Previous Version | Text Only | Print | Product List | Glossary On
Versions: 1 2 3 4 5 6 7 8 9 10 11 12 13 14 15 16 17 18 19 20 21 22 23 24 25 26 27 28 29 30 31 32 33 34 35 36 37 38 39 40 41 42 43 44 45 46 47 48 49 50
000
ASUS43 KDMX 182001
RWRIA

WEATHER ROUNDUP FOR IOWA
NATIONAL WEATHER SERVICE DES MOINES IA
300 PM CDT MON SEP 18 2017

NOTE: "FAIR" INDICATES FEW OR NO CLOUDS BELOW 12,000 FEET WITH NO
SIGNIFICANT WEATHER AND/OR OBSTRUCTIONS TO VISIBILITY.

* - THESE STATIONS ARE NOT NWS STATIONS...THUS NOT UNDER NWS
QUALITY CONTROL.  THEY ALSO DO NOT REPORT WEATHER SUCH
AS PRECIPITATION OR FOG.

IAZ001>003-012>014-020>022-031>034-043>046-182100-
   NORTHWEST IOWA

CITY           SKY/WX    TMP DP  RH WIND       PRES   REMARKS
CARROLL *      CLOUDY    68  66  94 S13       29.95F
CHEROKEE *     CLOUDY    67  67  97 S8        29.92F
DENISON *      CLOUDY    70  66  88 VRB7G13   29.95F
LE MARS *      PTSUNNY   68  66  94 SW8       29.90F
ORANGE CITY *  PTSUNNY   72  68  88 S9G18     29.91F
SHELDON *      CLOUDY    64  64 100 SE3       29.90F
SIOUX CITY     CLOUDY    70  67  90 S10G17    29.90F
SPENCER        LGT RAIN  64  62  93 NE5       29.93F FOG
STORM LAKE *   PTSUNNY   68  64  88 S13       29.94F
$$

IAZ055>058-069>071-079>083-090>094-182100-
   SOUTHWEST IOWA

CITY           SKY/WX    TMP DP  RH WIND       PRES   REMARKS
ATLANTIC *     CLOUDY    70  66  88 S6        29.95F
AUDUBON *      CLOUDY    68  64  88 S5        29.97S
CLARINDA *     CLOUDY    70  68  94 S3        29.98F
COUNCIL BLFS * CLOUDY    70  70 100 SW8G15    29.94F
CRESTON *      CLOUDY    68 -24   2 S8        29.98S
HARLAN  *      CLOUDY    70  66  88 S9        29.97F
LAMONI         LGT RAIN  68  67  96 SE6       29.96F
RED OAK *      CLOUDY    70  66  88 SE6       29.93F
SHENANDOAH *   CLOUDY    70  66  88 SE10      29.93F
$$

IAZ047>049-059>061-072>074-084-182100-
   CENTRAL IOWA

CITY           SKY/WX    TMP DP  RH WIND       PRES   REMARKS
AMES           CLOUDY    68  64  87 SE9       29.97F
ANKENY *       CLOUDY    70  64  83 SE6       29.97F
BOONE *        CLOUDY    66  61  82 SE7       29.97F
CHARITON *     LGT RAIN  68  66  94 S7        29.98F
DES MOINES     CLOUDY    72  65  78 SE10      29.96F
GRINNELL*      HVY RAIN  67  63  86 CALM      30.01S
KNOXVILLE *    RAIN      68  66  94 CALM      29.98F
MARSHALLTOWN   LGT RAIN  67  62  84 SE5       29.99F
NEWTON *       CLOUDY    68  64  88 SE3       29.99F
PELLA *        RAIN      68  66  93 CALM      30.00F
PERRY *        CLOUDY    68  64  89 E6        29.97F
$$

IAZ004>006-015-016-023>025-035-036-182100-
   NORTH CENTRAL IOWA

CITY           SKY/WX    TMP DP  RH WIND       PRES   REMARKS
ALGONA *       CLOUDY    63  63 100 S8        29.96F
CLARION *      CLOUDY    64  64 100 SE14      29.98F
ESTHERVILLE    LGT RAIN  60  60 100 W3        29.95R FOG
FORT DODGE *   CLOUDY    64  62  93 SE6       29.97F
MASON CITY     CLOUDY    63  58  83 S14       30.01S
FOREST CITY *  CLOUDY    63  59  88 SE10      29.99F
WEBSTER CITY * CLOUDY    64  61  88 SE8       29.96F
IOWA FALLS *   CLOUDY    64  62  91 E6        30.01F
$$

IAZ007>011-017>019-026>030-037>042-050>054-066-182100-
   NORTHEAST IOWA

CITY           SKY/WX    TMP DP  RH WIND       PRES   REMARKS
CEDAR RAPIDS   CLOUDY    75  59  57 SW7       30.00F
CHARLES CITY * LGT RAIN  63  61  94 SE6       30.02S
CLINTON *      SUNNY     78  62  57 S6        30.01F HX  80
DECORAH *      CLOUDY    66  52  59 CALM      30.02S
DUBUQUE        SUNNY     74  53  48 SE9       30.02F
MONTICELLO *   PTSUNNY   77  57  50 S6G14     30.00F
OELWEIN *      LGT RAIN  68  57  68 S6G12     30.02F
WATERLOO       LGT RAIN  66  58  75 S3        29.99S
$$

IAZ064-065-067-068-078-182100-
   EAST CENTRAL IOWA

CITY           SKY/WX    TMP DP  RH WIND       PRES   REMARKS
DAVENPORT      MOSUNNY   78  61  55 SE8       30.01F HX  80
IOWA CITY      PTSUNNY   79  61  53 S8        30.01F HX  80
MUSCATINE *    CLOUDY    81  61  50 S7        29.99F HX  81
QUAD CITIES    MOSUNNY   80  62  54 SE12      29.98F HX  81
$$

IAZ062-063-075>077-085>089-095>099-182100-
   SOUTHEAST IOWA

CITY           SKY/WX    TMP DP  RH WIND       PRES   REMARKS
BURLINGTON     MOSUNNY   78  65  63 SW10      29.99F HX  80
FAIRFIELD *    CLOUDY    79  61  53 S9        29.98F HX  80
FORT MADISON * CLOUDY    79  64  61 CALM      30.00F HX  81
KEOKUK *       CLOUDY    79  64  61 SW5       29.97F HX  81
OSKALOOSA *    CLOUDY    75  62  64 S6        29.99F
OTTUMWA        CLOUDY    77  62  59 S7        29.98F
WASHINGTON *   CLOUDY    79  63  57 SW6       30.00F HX  80
$$

ABBREVIATIONS USED IN REMARKS
   TC - TEMPERATURES IN CELSIUS
  WCI - WIND CHILL INDEX
   HX - HEAT INDEX
  VSB - VISIBILITY
$$





USA.gov is the U.S. government's official web portal to all federal, state and local government web resources and services.